Overview Statistics Trail Chart Weather Telemetry Raw packets
 

This is the latest recevied weather packets stored in our database for station/object WE1C. If no packets are shown the sender has not sent any weather packets the latest 10 day(s).

<< 99 100 101 102 103 104 105 >>
Time Temp. Humidity Pressure Rain* Wind** Luminosity Snow
1787866093 23.33° C 76% 1045.1 hPa 0 mm - 163 W/m² -
1787865788 23.33° C 76% 1045.2 hPa 0 mm - 149 W/m² -
1787865483 23.33° C 75% 1045.2 hPa 0 mm - 152 W/m² -
1787865178 23.33° C 75% 1045.1 hPa 0 mm - 125 W/m² -
1787864875 23.33° C 73% 1045.2 hPa 0 mm - 126 W/m² -
1787864574 23.33° C 74% 1045.2 hPa 0 mm - 148 W/m² -
1787864269 23.89° C 75% 1045.3 hPa 0 mm - 136 W/m² -
1787863964 23.89° C 74% 1045.3 hPa 0 mm - 181 W/m² -
1787863663 23.89° C 73% 1045.3 hPa 0 mm - 147 W/m² -
1787863361 23.89° C 73% 1044.9 hPa 0 mm - 162 W/m² -
1787863057 23.89° C 73% 1045 hPa 0 mm - 166 W/m² -
1787862752 23.89° C 73% 1045.1 hPa 0 mm - 199 W/m² -
1787862452 23.89° C 73% 1045.1 hPa 0 mm - 179 W/m² -
1787862147 24.44° C 73% 1045.1 hPa 0 mm - 196 W/m² -
1787861842 24.44° C 74% 1045.1 hPa 0 mm - 196 W/m² -
1787861542 25° C 76% 1045.4 hPa 0 mm - 175 W/m² -
1787861235 25° C 73% 1045.3 hPa 0 mm - 200 W/m² -
1787860934 24.44° C 75% 1045.5 hPa 0 mm - 270 W/m² -
1787860629 24.44° C 73% 1045.4 hPa 0 mm - 193 W/m² -
1787860324 24.44° C 74% 1045.5 hPa 0 mm - 196 W/m² -
1787860020 23.89° C 74% 1045.8 hPa 0 mm - 214 W/m² -
1787859715 23.89° C 77% 1045.6 hPa 0 mm - 90 W/m² -
1787859415 23.89° C 75% 1045.7 hPa 0 mm - 79 W/m² -
1787859110 24.44° C 73% 1045.6 hPa 0 mm - 122 W/m² -
1787858807 24.44° C 73% 1045.4 hPa 0 mm - 127 W/m² -

* Rain latest hour (hover to see other rain measurements)
** Current wind speed in m/s (hover to see current wind gust speed)